Location: Chervonnoye
(48.6000°N, 34.4000°E)
Time: 14:28:13
(UTC+00:00)

Cosmos 2221 - Pass Details

Date: 23 November 2020
Orbit: 593 x 615 km, 82.5° (Epoch: 27 January)

Event Time Altitude Azimuth Distance (km) Brightness Sun altitude
Rises 14:32:23 0° 177° (S) 2,863 6.3 -6.4°
Reaches altitude 10° 14:34:37 10° 174° (S) 1,961 5.4 -6.7°
Maximum altitude 14:38:53 59° 95° (E) 710 2.6 -7.4°
Drops below altitude 10° 14:43:09 10° 17° (NNE) 1,964 4.8 -8.0°
Sets 14:45:23 0° 13° (NNE) 2,869 5.6 -8.4°
